Weather Roundup
Issued by NWS

Home | Current Version | Previous Version | Graphics & Text | Print | Product List | Glossary Off
Versions: 1 2 3 4 5 6 7 8 9 10 11 12 13 14 15 16 17 18 19 20 21 22 23 24 25 26 27 28 29 30 31 32 33 34 35 36 37 38 39 40 41 42 43 44 45 46 47 48 49 50

953
NZUS93 KARX 171759
HRRWXR

CURRENT HOURLY OBSERVATIONS ACROSS
MUCH OF THE UPPER MISSISSIPPI VALLEY
NATIONAL WEATHER SERVICE LA CROSSE WI
1200 PM CST SAT FEB 17 2018


...SOUTHEAST MINNESOTA...


CITY           SKY/WX    TMP DP  RH WIND       PRES   REMARKS
ROCHESTER      LGT SNOW  23  21  92 SW15      29.89S VSB 3/4 WCI  10
ROCHESTER/MAYO CLOUDY    26  23  87 W8        29.90S WCI  18
WINONA         LGT SNOW  28  23  80 CALM      29.92R VSB 1
AUSTIN         LGT SNOW  25  19  80 SW10      29.90F WCI  15
ALBERT LEA     CLOUDY    27  21  80 SW7       29.90S WCI  19
DODGE CENTER   CLOUDY    25  21  86 SW12      29.88F WCI  14
PRESTON        LGT SNOW  23  20  87 SW9       29.90S VSB 1   WCI  13
OWATONNA       PTSUNNY   27  23  86 SW10      29.89F WCI  17
FARIBAULT      PTSUNNY   28  21  74 SW5       29.90F WCI  23
$$

...ELSEWHERE IN MINNESOTA...


CITY           SKY/WX    TMP DP  RH WIND       PRES   REMARKS
MINNEAPOLIS    CLOUDY    31  25  78 W7        29.89F WCI  24
INTNL FALLS    FAIR      19   7  59 W12G21    29.76R WCI   7
DULUTH         FAIR      25  13  60 W20       29.76S WCI  11
RED WING       CLOUDY    28  19  69 W7        29.90S WCI  21
REDWOOD FALLS  SUNNY     34  20  56 NW15      29.91R WCI  24
MANKATO        FAIR      31  24  75 W9        29.91S WCI  23
WORTHINGTON    PTSUNNY   30  25  81 W17       29.93R WCI  18
FAIRMONT       FLURRIES  30  24  78 W16       29.92R WCI  19
$$

...SOUTHWEST WISCONSIN...


CITY           SKY/WX    TMP DP  RH WIND       PRES   REMARKS
LA CROSSE      SNOW      25  22  88 S10       29.93F VSB 1/2 WCI  15
PRAIRIE DU CHI MIX PCPN  26  19  77 CALM      29.97F
BOSCOBEL       CLOUDY    30  15  53 VRB7      29.97F WCI  23
LONE ROCK      NOT AVBL
PLATTEVILLE    FAIR      26  18  71 CALM      29.94F
FORT MC COY    LGT SNOW  25  20  83 SW7       29.93S WCI  17
MAUSTON-NEW LI CLOUDY    26  17  69 SW9       29.91F WCI  17
VIROQUA        CLOUDY    23  20  89 SW12      29.90F WCI  12
WIS DELLS      CLOUDY    24  19  82 SW3       29.94F
$$

...ELSEWHERE IN WISCONSIN...


CITY           SKY/WX    TMP DP  RH WIND       PRES   REMARKS
MILWAUKEE      CLOUDY    31  11  43 SW9       29.99F WCI  23
MADISON        FLURRIES  27  14  58 S9        29.94F WCI  18
GREEN BAY      CLOUDY    26  11  52 SW13      29.92F WCI  15
EAU CLAIRE     LGT SNOW  25  21  86 SW8       29.88S VSB 1   WCI  16
BLACK RVR FLS  LGT SNOW  25  19  79 SW6       29.91S WCI  18
MEDFORD        LGT SNOW  19  16  88 SW7       29.84S VSB 1   WCI  10
WAUSAU         LGT SNOW  21  18  88 SW9       29.85F VSB 3/4 WCI  11
WIS RAPIDS     LGT SNOW  23  18  81 SW8       29.91F VSB 3/4 WCI  14
MARSHFIELD     SNOW      22  19  89 SW10      29.85F VSB 1/2 WCI  11
RICE LAKE      CLOUDY    28  21  77 SW7       29.87F WCI  20
$$

...NORTHEAST IOWA...


CITY           SKY/WX    TMP DP  RH WIND       PRES   REMARKS
WATERLOO       SNOW      24  23  96 SW7       29.94S VSB 1/2 WCI  16
DUBUQUE        LGT SNOW  26  21  81 S10       29.93F VSB 3/4 WCI  16
DECORAH        LGT SNOW  25  21  86 VRB6      29.90F VSB 1   WCI  18
MASON CITY     CLOUDY    26  21  81 SW9       29.92F HAZE    WCI  17
CHARLES CITY   SNOW      25  25 100 SW10      29.92F VSB 1/2 WCI  15
OELWEIN        LGT SNOW  25  25 100 SW9       29.93F VSB 3/4 WCI  15
$$

...ELSEWHERE IN IOWA...


CITY           SKY/WX    TMP DP  RH WIND       PRES   REMARKS
DES MOINES     CLOUDY    32  26  78 W18G25    29.96R WCI  20
IOWA CITY      SNOW      30  26  85 S6        29.97F VSB 1/4 WCI  24
FORT DODGE     CLOUDY    31  25  78 W13       29.94S WCI  21
MARSHALLTOWN   LGT SNOW  26  24  92 SW8       29.93F FOG     WCI  18
CEDAR RAPIDS   HVY SNOW  27  25  92 SW6       29.94S VSB 1/4 WCI  20
$$

...NORTHERN ILLINOIS...


CITY           SKY/WX    TMP DP  RH WIND       PRES   REMARKS
CHICAGO-OHARE  CLOUDY    32  23  69 SW13      29.99F WCI  22
CHICAGO-MIDWAY CLOUDY    34  25  69 SW12      30.01F WCI  25
MOLINE         LGT SNOW  33  28  81 SW15      29.95F VSB 3/4 WCI  23
ROCKFORD       CLOUDY    28  22  78 S9        29.99F WCI  19
PEORIA         LGT SNOW  32  29  88 S15       29.99F FOG     WCI  22
$$

NOTE: "FAIR" INDICATES FEW OR NO CLOUDS BELOW 12,000 FEET WITH NO
SIGNIFICANT WEATHER AND/OR OBSTRUCTIONS TO VISIBILITY. WIND
SPEEDS ARE IN MILES-PER-HOUR.




USA.gov is the U.S. government's official web portal to all federal, state and local government web resources and services.